Flag for Italy Weather past 2 weeks in Venice, Italy

Now
57 °F

Passing clouds.


Feels Like: 52 °F
Forecast: 39 / 53 °F
Wind: 28 mph from Northeast

Location: Venice / Tessera

Current Time: Mar 5, 2015 at 5:38:38 PM

Latest Report: Mar 5, 2015 at 4:50 PM


Visibility: N/A

Pressure: 30.09 "Hg

Humidity: 15%

Dew point: 10 °F

Location of VeniceLocation

Historic Weather in Venice — Graph

°F

Venice temperature yesterday

Maximum temperature yesterday: 55 °F (at 1:20 PM)
Minimum temperature yesterday: 41 °F (at 6:50 AM)
Average temperature yesterday: 49 °F

Past Weeks' High & Low Weather Summary

 TemperatureHumidityPressure
High59 °F (Mar 5, 3:20 PM)100% (Feb 20, 7:50 AM)30.60 "Hg (Feb 20, 7:50 AM)
Low27 °F (Feb 20, 7:50 AM)13% (Mar 5, 3:20 PM)29.53 "Hg (Feb 22, 4:50 AM)
Average47 °F74%29.97 "Hg
* Reported Feb 18 4:20 PM — Mar 5 4:20 PM, Venice, Weather by CustomWeather, © 2015

Note: Actual official high and low records may vary slightly from our data, if they occured in-between our weather recording intervals... More about our weather records

Advertising

Venice weather history for previous 24 hours

 ConditionsComfort  
Time TempWeatherWind HumidityBarometerVisibility
4:20 PM
Thu, Mar 5
57 °FSunny.26 mph15%30.09 "Hg10 mi
3:50 PM57 °FPassing clouds.25 mph15%30.07 "HgN/A
3:20 PM59 °FSunny.25 mph13%30.07 "Hg10 mi
2:50 PM57 °FPassing clouds.20 mph15%30.07 "HgN/A
2:20 PM54 °FSunny.15 mph41%30.09 "Hg10 mi
1:50 PM55 °FPassing clouds.16 mph28%30.09 "HgN/A
1:20 PM54 °FSunny.16 mph44%30.09 "Hg10 mi
12:50 PM54 °FPassing clouds.16 mph41%30.09 "HgN/A
12:20 PM54 °FSunny.21 mph41%30.12 "Hg10 mi
11:50 AM55 °FSunny.22 mph18%30.12 "Hg10 mi
11:20 AM55 °FSunny.21 mph21%30.15 "Hg10 mi
10:50 AM52 °FSunny.10 mph38%30.15 "Hg10 mi
10:20 AM50 °FSunny.12 mph37%30.15 "Hg10 mi
9:50 AM48 °FSunny.12 mph40%30.15 "Hg10 mi
9:20 AM46 °FPassing clouds.10 mph50%30.15 "HgN/A
8:50 AM45 °FSunny.10 mph57%30.12 "Hg10 mi
8:20 AM45 °FSunny.10 mph57%30.12 "Hg10 mi
7:50 AM46 °FSunny.16 mph57%30.12 "Hg10 mi
7:20 AM46 °FSunny.20 mph57%30.12 "Hg10 mi
6:50 AM46 °FPassing clouds.22 mph53%30.12 "HgN/A
6:20 AM46 °FPassing clouds.22 mph57%30.12 "HgN/A
5:50 AM46 °FPassing clouds.17 mph57%30.12 "HgN/A
5:20 AM46 °FPassing clouds.17 mph57%30.12 "HgN/A
4:50 AM46 °FPassing clouds.18 mph57%30.12 "HgN/A
4:20 AM46 °FPassing clouds.18 mph53%30.12 "HgN/A
3:50 AM46 °FPassing clouds.15 mph57%30.12 "HgN/A
2:50 AM46 °FPassing clouds.21 mph66%30.12 "HgN/A
2:20 AM46 °FPassing clouds.23 mph66%30.12 "HgN/A
1:50 AM46 °FPassing clouds.23 mph66%30.12 "HgN/A
1:20 AM46 °FPassing clouds.25 mph66%30.12 "HgN/A
12:50 AM46 °FPassing clouds.26 mph71%30.12 "HgN/A
12:20 AM46 °FPassing clouds.25 mph71%30.09 "HgN/A
11:50 PM
Wed, Mar 4
46 °FPartly cloudy.21 mph76%30.12 "HgN/A
11:20 PM46 °FLight rain. Partly cloudy.24 mph76%30.12 "HgN/A
10:50 PM45 °FLight rain. Passing clouds.28 mph87%30.12 "HgN/A
10:20 PM48 °FLight rain. Partly cloudy.15 mph76%30.12 "HgN/A
9:50 PM48 °FLight rain. Partly cloudy.18 mph76%30.09 "HgN/A
9:20 PM50 °FPartly cloudy.22 mph67%30.09 "HgN/A
8:50 PM52 °FPartly cloudy.26 mph58%30.07 "HgN/A
8:20 PM52 °FPartly cloudy.18 mph62%30.07 "HgN/A
7:50 PM52 °FPassing clouds.13 mph77%30.07 "HgN/A
7:20 PM52 °FPassing clouds.8 mph77%30.07 "HgN/A
6:50 PM52 °FPassing clouds.7 mph77%30.07 "HgN/A
6:20 PM52 °FPassing clouds.7 mph82%30.07 "HgN/A
5:50 PM52 °FPassing clouds.6 mph77%30.04 "HgN/A
5:20 PM52 °FSunny.8 mph77%30.07 "Hg10 mi
Weather by CustomWeather, © 2015

See weather overviewHow to use our weather pages